KLM98 KBOS-KATL

Flight info

Callsign KLM98
Flight time N/A
Altitude 38000
Route KBOS/22R N0473F380 BLZZR6 BLZZR DCT BAF Q448 PTW J48 MOL DCT FLASK OZZZI1 KATL/26R
Aircraft B77W/H-SDE1E2E3FGHIJ2J3J4J5M1RWXY/LB1D1

Departure

Time 2026-05-04 23:05
Airport Boston Logan International Airport (KBOS)

Arrival

Time N/A
Airport Hartsfield Jackson Atlanta International Airport (KATL)
Time Latitude Longitude Altitude Speed Heading
2026-05-04 22:34 42.37143 -71.02086 28 ft 0 kts 180°
2026-05-04 22:51 42.37149 -71.02086 28 ft 3 kts 180°
2026-05-04 22:51 42.37169 -71.02088 27 ft 3 kts 165°
2026-05-04 22:52 42.37187 -71.02098 27 ft 3 kts 147°
2026-05-04 22:52 42.37202 -71.02115 26 ft 3 kts 130°
2026-05-04 22:52 42.37213 -71.02136 26 ft 3 kts 113°
2026-05-04 22:52 42.37218 -71.02160 28 ft 3 kts 96°
2026-05-04 22:53 42.37219 -71.02178 28 ft 0 kts 83°
2026-05-04 22:53 42.37220 -71.02172 27 ft 0 kts 83°
2026-05-04 22:55 42.37223 -71.02157 28 ft 5 kts 71°
2026-05-04 22:56 42.37236 -71.02095 28 ft 9 kts 85°
2026-05-04 22:56 42.37236 -71.02091 28 ft 0 kts 85°
2026-05-04 22:57 42.37234 -71.02007 28 ft 14 kts 91°
2026-05-04 22:57 42.37279 -71.01893 29 ft 14 kts 52°
2026-05-04 22:57 42.37261 -71.01773 29 ft 14 kts 133°
2026-05-04 22:58 42.37191 -71.01678 29 ft 14 kts 136°
2026-05-04 22:58 42.37126 -71.01590 29 ft 12 kts 135°
2026-05-04 22:58 42.37068 -71.01513 29 ft 12 kts 135°
2026-05-04 22:58 42.37011 -71.01436 28 ft 12 kts 135°
2026-05-04 22:59 42.36953 -71.01359 28 ft 12 kts 135°
2026-05-04 22:59 42.36933 -71.01258 28 ft 12 kts 84°
2026-05-04 22:59 42.36957 -71.01149 31 ft 12 kts 54°
2026-05-04 22:59 42.37030 -71.01080 28 ft 13 kts 26°
2026-05-04 23:00 42.37113 -71.01026 28 ft 13 kts 26°
2026-05-04 23:00 42.37193 -71.00974 28 ft 12 kts 26°
2026-05-04 23:00 42.37269 -71.00923 28 ft 13 kts 26°
2026-05-04 23:00 42.37327 -71.00888 27 ft 15 kts 18°
2026-05-04 23:01 42.37454 -71.00830 28 ft 15 kts 20°
2026-05-04 23:01 42.37550 -71.00783 28 ft 15 kts 19°
2026-05-04 23:01 42.37640 -71.00740 28 ft 13 kts 19°
2026-05-04 23:01 42.37713 -71.00705 28 ft 10 kts 19°
2026-05-04 23:02 42.37761 -71.00682 29 ft 3 kts 19°
2026-05-04 23:02 42.37782 -71.00672 28 ft 4 kts 20°
2026-05-04 23:02 42.37816 -71.00651 28 ft 6 kts 32°
2026-05-04 23:02 42.37838 -71.00609 29 ft 5 kts 67°
2026-05-04 23:03 42.37839 -71.00581 29 ft 0 kts 103°
2026-05-04 23:03 42.37837 -71.00571 29 ft 5 kts 105°
2026-05-04 23:03 42.37798 -71.00501 29 ft 11 kts 159°
2026-05-04 23:03 42.37729 -71.00502 29 ft 6 kts 195°
2026-05-04 23:04 42.37727 -71.00503 29 ft 0 kts 196°
2026-05-04 23:04 42.37648 -71.00540 29 ft 37 kts 199°
2026-05-04 23:04 42.37221 -71.00747 25 ft 97 kts 200°
2026-05-04 23:04 42.36436 -71.01125 31 ft 139 kts 200°
2026-05-04 23:05 42.35499 -71.01578 362 ft 147 kts 200°
2026-05-04 23:05 42.34488 -71.02055 685 ft 159 kts 201°
2026-05-04 23:05 42.33387 -71.02570 1234 ft 182 kts 205°
2026-05-04 23:05 42.32218 -71.03101 3107 ft 179 kts 201°
2026-05-04 23:06 42.30860 -71.03105 4036 ft 222 kts 168°
2026-05-04 23:06 42.29466 -71.01793 4230 ft 264 kts 121°
2026-05-04 23:06 42.29013 -70.99507 5500 ft 246 kts 88°
2026-05-04 23:06 42.29145 -70.97206 6513 ft 247 kts 72°